This demonstration page uses our WeatherBlox Daily Observations layout. Learn more.

Hourly Observations for October 29, 2020

Temp ( °F °C ) Dew Point ( °F °C ) Humidity (%) Winds ( mph kmh ) Pressure ( in mb ) Visibility ( mi km ) Precip ( " mm )
12:15 am 00:15 Clear 41 4.8 35 1.7 81 81 N 15 24 30.13 1020 10 16.0934 0 0
12:35 am 00:35 Clear 40 4.5 35 1.6 82 82 N 17 28 30.12 1020 10 16.0934 0 0
12:55 am 00:55 Clear 40 4.3 35 1.5 82 82 N 17 28 30.12 1020 10 16.0934 0 0
1:15 am 01:15 Clear 39 4 35 1.5 84 84 N 15 24 30.14 1021 10 16.0934 0 0
1:35 am 01:35 Clear 39 3.7 34 1.3 85 85 N 15 24 30.15 1021 10 16.0934 0 0
1:55 am 01:55 Clear 38 3.5 34 1.2 85 85 N 14 22 30.17 1022 10 16.0934 0 0
2:15 am 02:15 Clear 38 3.3 34 1.2 86 86 N 9 15 30.18 1022 10 16.0934 0 0
2:35 am 02:35 Clear 38 3.2 34 1.2 87 87 NNW 14 22 30.17 1022 10 16.0934 0 0
2:55 am 02:55 Clear 37 3 34 1 87 87 N 10 17 30.18 1022 10 16.0934 0 0
3:15 am 03:15 Clear 37 2.6 33 0.8 88 88 N 10 17 30.18 1022 10 16.0934 0 0
3:35 am 03:35 Clear 36 2.3 33 0.6 89 89 N 9 15 30.2 1023 10 16.0934 0 0
3:55 am 03:55 Clear 35 1.8 32 0.2 89 89 N 8 13 30.21 1023 10 16.0934 0 0
4:15 am 04:15 Clear 34 1.1 32 0 92 92 N 10 17 30.2 1023 10 16.0934 0 0
4:35 am 04:35 Clear 33 0.8 32 -0.1 94 94 N 5 7 30.22 1023 10 16.0934 0 0
4:55 am 04:55 Clear 32 0 30 -1 93 93 N 7 11 30.23 1024 10 16.0934 0 0
5:15 am 05:15 Clear 32 0.1 31 -0.5 96 96 NNW 9 15 30.22 1024 10 16.0934 0 0
5:35 am 05:35 Clear 32 -0.1 30 -1 94 94 NNW 7 11 30.24 1024 10 16.0934 0 0
5:55 am 05:55 Clear 32 0 30 -0.9 94 94 NW 7 11 30.24 1024 10 16.0934 0 0
6:15 am 06:15 Clear 31 -0.5 29 -1.4 94 94 NW 7 11 30.24 1024 10 16.0934 0 0
6:35 am 06:35 Clear 31 -0.8 29 -1.6 94 94 NW 5 7 30.25 1024 10 16.0934 0 0
6:55 am 06:55 Clear 31 -0.7 29 -1.5 94 94 NW 7 11 30.25 1024 10 16.0934 0 0
7:15 am 07:15 Clear 31 -0.7 29 -1.5 94 94 NW 8 13 30.25 1024 10 16.0934 0 0
7:35 am 07:35 Clear 30 -1 29 -1.8 94 94 NW 7 11 30.27 1025 10 16.0934 0 0
7:55 am 07:55 Clear 30 -1 29 -1.7 95 95 NW 7 11 30.28 1025 10 16.0934 0 0
8:15 am 08:15 Sunny 30 -1.2 28 -2 94 94 NW 6 9 30.28 1025 10 16.0934 0 0
8:35 am 08:35 Sunny 30 -1 29 -1.7 95 95 WNW 5 7 30.28 1025 10 16.0934 0 0
8:55 am 08:55 Sunny 31 -0.6 29 -1.4 94 94 W 5 7 30.28 1025 10 16.0934 0 0
9:15 am 09:15 Sunny 32 0 31 -0.6 96 96 WNW 7 11 30.3 1026 10 16.0934 0 0
9:35 am 09:35 Sunny 33 0.6 31 -0.3 94 94 WNW 7 11 30.29 1026 10 16.0934 0 0
9:55 am 09:55 Partly Cloudy 33 0.7 32 -0.1 94 94 WNW 7 11 30.3 1026 10 16.0934 0 0
10:15 am 10:15 Mostly Cloudy 34 1.3 32 0.2 92 92 WNW 8 13 30.3 1026 10 16.0934 0 0
10:35 am 10:35 Mostly Cloudy 36 2.1 33 0.6 90 90 WNW 6 9 30.3 1026 10 16.0934 0 0
10:55 am 10:55 Partly Cloudy 38 3.5 34 1.1 84 84 NW 3 6 30.27 1025 10 16.0934 0 0
11:15 am 11:15 Mostly Cloudy 39 3.7 33 0.7 81 81 NNW 5 7 30.27 1025 10 16.0934 0 0
11:35 am 11:35 Partly Cloudy 40 4.6 33 0.5 75 75 NNW 3 6 30.26 1025 10 16.0934 0 0
11:55 am 11:55 Sunny 41 5 33 0.3 72 72 N 5 7 30.24 1024 10 16.0934 0 0
12:15 pm 12:15 Sunny 43 5.9 32 0.2 67 67 NNE 7 11 30.24 1024 10 16.0934 0 0
12:35 pm 12:35 Sunny 43 6.2 32 0.1 65 65 NNW 3 6 30.24 1024 10 16.0934 0 0
12:55 pm 12:55 Sunny 44 6.8 33 0.5 65 65 Calm 30.21 1023 10 16.0934 0 0
1:15 pm 13:15 Sunny 45 7 32 0.2 62 62 Calm 30.2 1023 10 16.0934 0 0
1:35 pm 13:35 Sunny 46 7.8 33 0.3 59 59 Calm 30.18 1022 10 16.0934 0 0
1:55 pm 13:55 Sunny 47 8.5 33 0.3 57 57 Calm 30.17 1022 10 16.0934 0 0
2:15 pm 14:15 Sunny 49 9.4 33 0.5 54 54 SW 5 7 30.15 1021 10 16.0934 0 0
2:35 pm 14:35 Sunny 49 9.7 33 0.7 54 54 W 5 7 30.14 1021 10 16.0934 0 0
2:55 pm 14:55 Sunny 50 10.2 34 1.1 54 54 S 3 6 30.13 1020 10 16.0934 0 0
3:15 pm 15:15 Sunny 52 11.1 33 0.7 49 49 SW 8 13 30.1 1019 10 16.0934 0 0
3:35 pm 15:35 Sunny 51 10.4 33 0.3 50 50 SW 9 15 30.11 1020 10 16.0934 0 0
3:55 pm 15:55 Sunny 51 10.4 32 0.1 49 49 SW 6 9 30.1 1019 10 16.0934 0 0
4:15 pm 16:15 Sunny 52 10.9 33 0.5 49 49 SSW 8 13 30.09 1019 10 16.0934 0 0
4:35 pm 16:35 Sunny 52 11.1 34 1.1 50 50 SSW 10 17 30.08 1019 10 16.0934 0 0
4:55 pm 16:55 Sunny 52 11.3 35 1.4 51 51 SSW 12 19 30.08 1019 10 16.0934 0 0
5:15 pm 17:15 Sunny 52 11.3 35 1.6 52 52 SSW 13 20 30.08 1019 10 16.0934 0 0
5:35 pm 17:35 Sunny 52 11.3 35 1.5 51 51 SW 8 13 30.08 1019 10 16.0934 0 0
5:55 pm 17:55 Sunny 52 11.3 35 1.5 51 51 S 7 11 30.07 1018 10 16.0934 0 0
6:15 pm 18:15 Sunny 52 11 35 1.6 53 53 S 7 11 30.06 1018 10 16.0934 0 0
6:35 pm 18:35 Sunny 50 9.8 35 1.5 57 57 S 5 7 30.07 1018 10 16.0934 0 0
6:55 pm 18:55 Clear 46 7.9 35 1.4 64 64 S 5 7 30.09 1019 10 16.0934 0 0
7:15 pm 19:15 Clear 45 7 34 1 66 66 S 7 11 30.1 1019 10 16.0934 0 0
7:35 pm 19:35 Clear 46 8 34 1 62 62 S 6 9 30.09 1019 10 16.0934 0 0
7:55 pm 19:55 Clear 44 6.4 33 0.6 67 67 S 6 9 30.13 1020 10 16.0934 0 0
8:15 pm 20:15 Clear 44 6.6 33 0.5 65 65 S 7 11 30.11 1020 10 16.0934 0 0
8:35 pm 20:35 Clear 45 7 33 0.3 63 63 S 10 17 30.12 1020 10 16.0934 0 0
8:55 pm 20:55 Clear 45 7.4 33 0.3 61 61 S 10 17 30.12 1020 10 16.0934 0 0
9:15 pm 21:15 Clear 46 7.6 32 0 59 59 S 10 17 30.1 1019 10 16.0934 0 0
9:35 pm 21:35 Clear 46 7.6 32 0 59 59 SSW 13 20 30.1 1019 10 16.0934 0 0
9:55 pm 21:55 Clear 46 7.7 32 0 59 59 S 13 20 30.1 1019 10 16.0934 0 0
10:15 pm 22:15 Clear 44 6.8 32 0 62 62 S 10 17 30.1 1019 10 16.0934 0 0
10:35 pm 22:35 Clear 43 6.2 32 0 65 65 SSW 10 17 30.11 1020 10 16.0934 0 0
10:55 pm 22:55 Clear 43 6.2 32 0 65 65 SSW 12 19 30.13 1020 10 16.0934 0 0
11:15 pm 23:15 Clear 42 5.6 32 -0.1 67 67 SSW 8 13 30.13 1020 10 16.0934 0 0
11:35 pm 23:35 Clear 42 5.6 32 0 68 68 SSW 6 9 30.13 1020 10 16.0934 0 0
11:55 pm 23:55 Clear 41 4.9 32 0 71 71 SSW 6 9 30.15 1021 10 16.0934 0 0

Powered by AerisWeather